sat.trackr.live / text

‹ back to catalog

STARLINK-4530

NORAD 53393 · 2022-097F

PAYLOAD ACTIVE UNKNOWN

§ Identity

Operator
Country
US
Launch date
2022-08-10
Launch site
AFETR
Launch vehicle
Mass (kg)
RCS (m²)

Purposes: comms

External: N2YO · Heavens-Above · Gunter

§ Orbital elements

Epoch: 2026-09-20T03:38:29.137632Z

Period
93.79 min
Inclination
53.1608°
Eccentricity
0.0001153
Mean motion
15.35398517 rev/d
Perigee alt
458.9 km
Apogee alt
460.5 km
Semi-major
6,837.9 km
B*
2.4124e-5
RAAN
323.0803°
Arg perigee
89.4363°
Mean anomaly
270.6772°
Rev number
22,813

§ Raw data

STARLINK-45301 53393U 22097F   26263.15172613  .00000461  00000+0  24124-4 0  99952 53393  53.1608 323.0803 0001153  89.4363 270.6772 15.35398517228134

JSON: /api/v1/satellites/53393 · /tle

For live sub-satellite position, see the globe view (requires WebGL).

§ Visibility from observer

Set your observer location to see the next 7 days of passes ≥ 10°. The values pass through the URL so the page stays shareable.

No JS? Fill the form by hand. The geolocation button needs JavaScript.